Location: Unspecified
(42.9300°N, 71.1866°W)
Time: 17:46:29
(UTC-05:00)

Envisat - Visible Passes

Search period start: 27 February 2017 00:00
Search period end: 09 March 2017 00:00
Orbit: 764 x 766 km, 98.2° (Epoch: 27 February)

Date Brightness Start Highest point End Pass type
(mag) Time Alt. Az. Time Alt. Az. Time Alt. Az.
27 Feb 3.7 19:06:50 32° E 19:07:21 32° ENE 19:11:50 10° N visible
27 Feb 4.7 20:47:02 30° W 20:47:02 30° W 20:50:51 10° NNW visible
28 Feb 4.5 18:29:33 14° E 18:31:02 16° ENE 18:34:05 10° NNE visible
28 Feb 3.2 20:09:44 68° W 20:09:44 68° W 20:14:34 10° NNW visible
01 Mar 3.0 19:32:27 53° E 19:32:50 55° ENE 19:37:47 10° N visible
01 Mar 5.4 21:12:39 18° W 21:12:39 18° W 21:15:40 10° NW visible
02 Mar 4.0 18:55:11 24° E 18:56:23 26° ENE 19:00:34 10° N visible
02 Mar 4.1 20:35:23 39° W 20:35:23 39° W 20:39:58 10° NNW visible
03 Mar 4.8 18:17:54 10° E 18:20:08 13° ENE 18:22:26 10° NNE visible
03 Mar 2.9 19:58:06 79° S 19:58:24 87° WSW 20:03:32 10° NNW visible
04 Mar 3.3 19:20:49 39° E 19:21:49 44° ENE 19:26:38 10° N visible
04 Mar 5.0 21:01:01 23° W 21:01:01 23° W 21:05:01 10° NW visible
05 Mar 4.2 18:43:33 18° E 18:45:25 22° ENE 18:49:14 10° NNE visible
05 Mar 3.7 20:23:45 49° WSW 20:24:05 50° W 20:29:02 10° NNW visible
06 Mar 4.9 18:08:20 10° ENE 18:09:15 10° ENE 18:10:09 10° NE visible
06 Mar 2.8 19:46:28 59° SE 19:47:21 76° ENE 19:52:27 10° N visible
06 Mar 5.7 21:26:40 13° W 21:26:56 13° W 21:29:17 10° WNW visible
07 Mar 3.6 19:09:12 28° ESE 19:10:49 35° ENE 19:15:25 10° N visible
07 Mar 4.6 20:49:24 28° WSW 20:49:52 29° W 20:54:16 10° NW visible
08 Mar 4.5 18:31:56 12° E 18:34:29 18° ENE 18:37:48 10° NNE visible
08 Mar 3.3 20:12:07 54° SSW 20:13:00 63° W 20:18:03 10° NNW visible
